Vorticity
6 7 9 12 6 3 5 5 3 21 13 9 -5 -3 1 5 8 2 13 9 7 -3 1 10 10 5 3 5 6 5 4 4 4 4 5 5 5 6 6 8 7 6 4 4 5 4 4 4 5
6 9 11 9 3 11 1 33 22 11 4 1 7 14 8 10 9 -8 8 -1 5 3 -2 4 9 7 4 4 6 3 3 4 5 5 5 6 5 5 6 7 5 5 4 4 4 4 4 5 5
10 11 14 11 14 5 -2 18 -6 2 6 1 -2 9 3 -4 -2 8 -14 -12 4 6 -9 -1 6 7 5 4 5 4 2 5 6 6 4 5 5 5 7 5 4 5 4 4 4 4 4 5 6
11 13 12 9 -7 -4 3 -9 10 8 -3 29 23 8 24 -0 7 2 2 4 2 8 5 6 4 6 7 4 4 4 2 5 5 5 4 4 5 5 6 5 5 4 5 5 4 4 5 6 9
10 12 13 5 7 12 2 7 -13 -1 5 2 5 13 -3 18 7 8 2 15 5 -1 7 4 4 5 5 5 4 4 3 5 -0 5 4 5 5 5 6 5 6 5 5 5 5 6 6 7 9
16 10 5 4 7 15 14 12 17 5 3 7 17 17 0 -5 3 1 7 -1 3 10 10 2 4 4 4 6 4 4 9 -1 2 4 4 5 5 5 5 6 5 6 5 5 6 7 6 9 7
13 6 10 8 13 7 6 9 2 5 7 4 2 0 6 18 17 11 7 -4 -5 -1 12 10 4 6 3 4 4 3 -2 2 2 4 4 4 5 5 5 6 6 5 5 6 7 7 6 7 5
15 15 13 9 -2 2 6 -3 9 16 13 21 5 15 22 23 2 18 8 14 4 0 -5 12 9 9 3 2 2 4 7 3 1 4 4 4 5 6 6 6 6 5 6 7 7 6 6 6 4
7 10 -2 6 7 1 -6 -3 6 1 3 15 10 10 18 10 -3 1 7 9 13 10 3 7 10 2 9 5 -3 5 4 4 3 2 5 5 5 6 6 6 6 6 7 7 7 6 6 5 5
6 4 10 -6 8 7 11 8 5 6 3 6 5 7 7 6 13 16 25 19 15 7 13 4 13 2 6 3 4 3 0 5 4 2 4 6 5 6 6 6 6 6 7 7 7 6 5 5 5
-4 2 5 6 4 4 5 7 7 8 -0 3 1 1 6 1 5 1 2 12 18 13 9 14 2 10 4 5 2 5 15 7 4 3 3 6 5 6 6 6 6 7 7 7 6 6 5 6 6
2 15 3 4 8 9 8 4 9 6 9 11 6 5 7 7 8 7 8 5 6 19 8 14 5 1 10 10 2 7 1 2 6 4 3 6 5 6 6 6 6 7 7 6 6 6 6 6 6
8 2 9 12 9 9 4 9 6 2 15 11 12 14 15 9 11 7 8 3 11 9 15 7 20 6 2 6 8 6 6 -2 8 4 3 5 6 6 6 6 6 7 7 6 6 6 6 7 6
3 10 11 10 15 -1 10 9 0 19 17 7 14 14 17 23 21 18 12 10 10 11 7 18 7 20 14 -17 22 -7 -3 10 2 5 4 5 6 6 6 6 7 7 7 6 7 6 7 7 7
7 15 9 8 3 4 -1 6 11 22 -2 -3 12 7 10 5 10 12 15 14 12 10 14 8 16 12 34 10 8 31 -21 9 13 1 6 6 6 6 7 6 7 7 7 7 7 7 8 7 7
10 16 10 -15 27 -1 8 1 -5 13 12 -5 11 15 12 7 10 8 2 3 0 10 11 15 8 12 12 9 13 1 -40 37 -16 11 2 5 6 7 7 7 7 7 7 7 7 8 8 7 6
25 -17 5 17 13 7 1 -9 -3 14 12 6 9 5 12 12 7 17 19 18 18 12 14 14 10 9 11 5 18 16 26 8 -9 8 1 5 6 7 7 6 7 7 7 7 8 9 8 7 7
-17 7 1 8 -9 23 14 -5 8 7 21 34 29 34 25 25 19 7 6 15 14 15 19 12 11 6 11 10 -0 -16 13 32 17 1 17 5 7 7 7 7 7 7 7 8 8 8 8 7 7
9 11 -0 12 19 8 -7 2 -4 39 17 15 8 5 13 11 14 17 12 7 18 18 12 16 9 11 7 18 1 27 20 14 -23 20 10 8 7 8 7 7 6 7 8 8 8 8 7 7 6
10 6 -2 17 1 6 1 4 10 41 10 6 -2 6 -1 10 3 -2 11 27 11 16 20 16 11 10 11 10 21 23 8 20 1 14 -0 8 9 8 8 7 7 6 7 8 8 7 6 7 7
9 11 14 7 4 19 31 12 12 53 31 18 -5 5 18 -10 -6 5 -6 18 18 16 19 11 10 10 12 14 20 18 12 0 43 -4 4 5 10 9 8 8 7 7 7 7 7 7 7 7 7
-5 18 -3 14 24 -17 -3 -14 15 -7 -0 33 46 5 -18 12 -6 -9 -3 -1 5 17 19 14 15 13 12 15 18 -1 3 20 -17 13 3 3 8 9 9 8 7 7 7 7 7 7 8 8 7
-10 5 17 -2 12 41 19 30 6 -5 -14 22 -6 6 8 5 -5 -4 4 -0 -2 27 17 12 14 13 14 12 22 -5 15 20 5 17 16 5 8 8 9 8 8 8 7 7 8 7 7 7 7
18 5 13 46 5 24 -0 22 -21 -16 22 14 12 1 -1 -5 13 17 37 66 37 25 18 8 20 14 14 14 21 3 13 14 16 30 -2 6 8 10 8 8 8 7 7 8 8 8 8 8 8
-7 14 20 16 10 -5 -33 58 -2 9 5 11 9 -4 -7 4 24 27 39 31 24 11 16 11 15 14 19 19 12 1 13 9 39 16 1 6 8 9 9 8 8 8 8 8 8 7 7 8 7
9 20 -6 15 -1 -36 50 18 -43 -19 2 9 5 -8 -16 4 49 22 29 39 12 14 18 9 21 14 19 11 15 7 2 36 14 39 -6 6 9 10 9 8 7 8 8 8 8 8 7 8 6
-9 19 6 -1 36 51 7 -6 18 -36 -2 9 -0 8 -1 73 31 32 33 16 12 18 14 20 21 10 14 19 18 2 20 -7 31 -1 -4 5 9 9 8 8 8 8 7 7 8 7 7 6 8
2 5 15 12 9 16 -23 26 -34 13 13 2 -9 0 44 18 27 24 27 13 16 19 12 14 17 11 8 5 -3 17 29 -9 63 2 11 8 9 8 9 9 8 7 7 7 7 8 7 7 7
1 -1 3 8 1 1 9 -25 12 20 -19 -6 -2 13 79 12 15 27 12 15 14 21 18 12 5 26 6 16 29 13 38 9 -3 9 9 9 10 8 8 8 8 7 7 7 7 9 6 5 6
19 5 28 0 -0 -32 -18 -37 40 -33 12 6 35 59 16 17 16 35 15 15 25 17 10 13 26 1 17 -20 32 34 8 30 1 10 8 8 9 9 8 7 7 8 8 8 8 7 6 6 6
Height
3137 3137 3137 3139 3144 3139 3136 3137 3140 3138 3138 3137 3139 3142 3144 3143 3142 3145 3142 3144 3143 3145 3147 3147 3147 3149 3149 3151 3151 3152 3153 3152 3153 3153 3154 3154 3154 3155 3155 3156 3156 3157 3158 3159 3160 3160 3160 3160 3160
3135 3135 3136 3136 3139 3137 3137 3137 3137 3134 3132 3135 3138 3139 3142 3138 3139 3139 3142 3142 3143 3142 3146 3146 3146 3147 3148 3149 3150 3151 3152 3153 3152 3153 3153 3154 3154 3154 3154 3155 3156 3157 3157 3158 3159 3159 3160 3160 3159
3132 3132 3134 3134 3135 3135 3136 3134 3131 3131 3131 3134 3135 3137 3137 3133 3134 3135 3140 3140 3141 3140 3144 3145 3145 3146 3146 3147 3148 3150 3150 3151 3152 3151 3152 3152 3153 3154 3154 3155 3155 3156 3156 3157 3157 3158 3159 3159 3159
3129 3130 3132 3131 3131 3135 3135 3131 3128 3129 3130 3130 3131 3136 3133 3130 3133 3131 3137 3137 3138 3137 3139 3143 3143 3144 3144 3145 3146 3147 3148 3149 3150 3150 3150 3151 3151 3152 3154 3155 3155 3155 3155 3156 3156 3157 3158 3158 3158
3127 3127 3128 3128 3130 3132 3131 3128 3126 3126 3128 3130 3129 3131 3129 3124 3127 3128 3134 3135 3135 3132 3133 3139 3140 3141 3142 3143 3144 3145 3146 3147 3147 3149 3149 3149 3150 3151 3152 3153 3154 3154 3155 3155 3155 3156 3156 3157 3157
3124 3126 3127 3128 3129 3130 3127 3126 3124 3124 3125 3127 3125 3124 3127 3118 3122 3126 3128 3131 3132 3130 3131 3134 3136 3137 3138 3140 3141 3143 3144 3145 3145 3146 3147 3148 3148 3149 3150 3151 3152 3153 3154 3154 3154 3155 3155 3155 3156
3123 3124 3125 3126 3125 3125 3126 3121 3122 3120 3120 3122 3119 3119 3124 3116 3116 3119 3122 3126 3128 3127 3129 3130 3131 3133 3134 3135 3137 3140 3141 3142 3143 3144 3144 3146 3147 3148 3148 3149 3150 3151 3152 3152 3153 3153 3153 3154 3154
3122 3123 3123 3124 3124 3123 3121 3120 3119 3117 3115 3116 3116 3114 3117 3115 3107 3109 3114 3118 3122 3123 3125 3126 3128 3130 3131 3132 3134 3135 3137 3139 3140 3142 3142 3143 3145 3145 3147 3148 3148 3149 3150 3151 3151 3151 3151 3152 3152
3122 3122 3123 3123 3121 3120 3118 3115 3116 3113 3111 3113 3111 3109 3110 3112 3106 3101 3110 3112 3114 3116 3118 3121 3122 3124 3126 3128 3130 3131 3133 3135 3137 3139 3140 3140 3141 3143 3145 3145 3146 3147 3148 3149 3149 3150 3150 3150 3151
3121 3120 3121 3119 3118 3115 3113 3110 3110 3107 3106 3108 3105 3105 3103 3102 3103 3100 3104 3106 3108 3110 3111 3114 3117 3119 3119 3122 3124 3126 3129 3131 3133 3135 3136 3137 3138 3141 3141 3143 3144 3144 3145 3146 3148 3148 3149 3149 3150
3118 3118 3117 3116 3113 3110 3107 3106 3104 3102 3101 3102 3098 3098 3098 3096 3095 3094 3095 3097 3099 3102 3106 3108 3111 3113 3114 3116 3119 3121 3124 3126 3129 3132 3132 3134 3136 3137 3138 3140 3141 3142 3143 3144 3145 3146 3147 3148 3148
3116 3114 3112 3111 3107 3104 3101 3099 3099 3097 3096 3096 3093 3090 3089 3088 3087 3088 3088 3090 3092 3093 3096 3101 3104 3107 3109 3112 3113 3116 3118 3122 3124 3128 3129 3131 3132 3134 3136 3137 3138 3139 3141 3141 3142 3144 3145 3146 3146
3111 3110 3108 3105 3103 3100 3096 3095 3093 3091 3091 3085 3083 3079 3077 3078 3079 3079 3079 3081 3083 3085 3088 3090 3096 3101 3103 3103 3108 3110 3113 3115 3119 3123 3125 3127 3129 3130 3132 3134 3135 3136 3138 3139 3140 3142 3142 3143 3144
3109 3106 3103 3101 3098 3094 3089 3086 3088 3086 3080 3078 3074 3071 3070 3068 3070 3070 3071 3072 3075 3078 3080 3083 3085 3091 3094 3094 3099 3103 3106 3108 3113 3117 3120 3123 3125 3126 3128 3130 3132 3133 3135 3137 3138 3139 3140 3141 3142
3105 3102 3098 3095 3093 3088 3082 3077 3080 3078 3075 3071 3068 3066 3064 3064 3063 3063 3064 3065 3067 3070 3072 3073 3079 3081 3085 3089 3090 3092 3093 3100 3105 3110 3114 3118 3121 3122 3124 3126 3129 3130 3131 3134 3135 3136 3137 3138 3139
3102 3098 3096 3095 3092 3088 3082 3063 3072 3074 3067 3063 3062 3060 3057 3056 3055 3055 3056 3057 3059 3060 3064 3065 3067 3073 3074 3079 3082 3085 3087 3089 3099 3106 3108 3112 3115 3118 3120 3122 3125 3127 3128 3130 3132 3133 3134 3135 3137
3100 3097 3094 3088 3089 3083 3080 3058 3065 3067 3060 3055 3052 3050 3048 3046 3046 3047 3048 3049 3049 3051 3054 3057 3056 3060 3066 3069 3073 3075 3074 3074 3080 3099 3102 3106 3110 3113 3116 3118 3120 3123 3125 3127 3129 3130 3132 3133 3134
3098 3093 3089 3087 3083 3078 3070 3058 3053 3058 3053 3047 3042 3041 3040 3040 3040 3041 3041 3041 3040 3040 3044 3047 3047 3049 3056 3061 3065 3068 3070 3073 3080 3085 3097 3100 3105 3108 3112 3114 3116 3119 3122 3124 3126 3128 3129 3129 3131
3097 3091 3085 3083 3080 3074 3066 3057 3049 3046 3044 3040 3038 3038 3036 3036 3035 3036 3034 3033 3032 3032 3033 3038 3038 3040 3045 3052 3058 3061 3064 3072 3067 3072 3085 3093 3099 3104 3108 3111 3112 3115 3118 3120 3123 3125 3126 3127 3127
3093 3087 3081 3076 3076 3072 3059 3046 3046 3041 3038 3037 3036 3034 3033 3031 3029 3028 3026 3025 3024 3024 3026 3027 3030 3031 3036 3042 3050 3055 3059 3065 3070 3068 3065 3084 3094 3099 3105 3108 3108 3111 3113 3117 3120 3121 3123 3123 3124
3090 3085 3078 3075 3070 3066 3055 3039 3039 3038 3036 3034 3031 3029 3028 3026 3022 3021 3020 3017 3016 3015 3017 3018 3019 3023 3028 3033 3042 3047 3051 3054 3059 3067 3066 3081 3089 3095 3102 3104 3104 3107 3109 3113 3117 3118 3119 3120 3120
3083 3082 3077 3071 3066 3059 3061 3041 3036 3034 3033 3032 3029 3028 3026 3020 3016 3013 3012 3011 3009 3008 3008 3009 3010 3015 3019 3025 3033 3040 3044 3046 3056 3065 3067 3077 3086 3093 3099 3099 3100 3104 3106 3110 3114 3115 3116 3117 3117
3082 3077 3073 3066 3062 3059 3049 3051 3029 3032 3028 3027 3027 3024 3017 3012 3007 3002 2998 2997 2998 2997 2996 2998 3003 3008 3012 3018 3025 3032 3038 3042 3046 3049 3059 3074 3079 3090 3093 3094 3097 3101 3103 3107 3110 3113 3112 3113 3113
3079 3073 3067 3061 3059 3057 3049 3049 3025 3029 3025 3022 3020 3015 3011 3006 3000 2988 2980 2974 2977 2983 2984 2990 2996 3001 3005 3011 3016 3024 3030 3036 3043 3050 3054 3069 3077 3084 3086 3090 3094 3097 3100 3104 3107 3109 3109 3110 3110
3080 3075 3066 3063 3059 3054 3048 3044 3029 3024 3022 3018 3012 3007 3000 2993 2983 2974 2967 2962 2965 2970 2976 2984 2990 2994 2999 3004 3010 3018 3024 3031 3038 3046 3052 3060 3071 3078 3082 3087 3092 3095 3097 3101 3103 3105 3105 3106 3107
3076 3077 3077 3071 3060 3044 3044 3035 3025 3025 3019 3012 3005 2999 2990 2980 2972 2964 2959 2958 2960 2965 2971 2978 2984 2989 2993 2999 3005 3013 3022 3024 3032 3043 3047 3055 3067 3075 3079 3084 3088 3091 3095 3098 3100 3100 3101 3102 3103
3076 3075 3074 3067 3057 3048 3033 3027 3025 3018 3012 3006 3000 2991 2981 2966 2960 2955 2954 2955 2956 2962 2968 2974 2981 2985 2989 2995 3001 3009 3016 3023 3025 3033 3050 3055 3064 3071 3076 3081 3085 3089 3092 3094 3096 3097 3099 3098 3101
3073 3073 3071 3069 3061 3051 3033 3027 3017 3011 3004 2997 2989 2979 2970 2961 2955 2952 2952 2953 2955 2960 2966 2972 2978 2982 2987 2993 2999 3005 3013 3017 3022 3030 3045 3053 3062 3067 3072 3079 3082 3086 3089 3091 3093 3096 3096 3097 3098
3072 3068 3068 3066 3063 3056 3037 3025 3016 3010 3002 2990 2981 2971 2962 2957 2953 2951 2950 2951 2956 2960 2964 2970 2975 2979 2985 2989 2996 3002 3008 3018 3024 3037 3044 3053 3061 3065 3069 3076 3080 3083 3086 3087 3090 3093 3093 3093 3094
3065 3065 3064 3061 3056 3052 3046 3020 3013 3010 3000 2989 2974 2961 2958 2955 2953 2949 2950 2953 2956 2959 2964 2968 2973 2978 2983 2985 2994 2998 3006 3016 3024 3034 3042 3050 3058 3063 3069 3073 3076 3080 3084 3085 3088 3089 3089 3091 3090